GW1757 Weather Reports


Display with metric or nautical units.
time (UTC)temp
F
wind
direction
speed
MPH
gust
MPH
rain 1hr
in
rain 24hr
in
rain mn
in
humidity
%
barometer
mb
20260507125650 81 217 0.0 3.0 0.00 0.01 0.01 91 1007.5
20260507125151 81 237 0.0 3.0 0.00 0.01 0.01 91 1007.5
20260507124643 81 256 0.0 2.0 0.00 0.01 0.01 90 1007.5
20260507123923 82 260 0.0 2.0 0.00 0.01 0.01 90 1007.5
20260507123423 82 49 0.0 3.0 0.00 0.01 0.01 90 1007.5
20260507123147 82 50 0.0 3.0 0.00 0.01 0.01 90 1007.4
20260507122423 82 69 0.0 0.0 0.00 0.01 0.01 90 1007.3
20260507121923 82 66 1.0 3.0 0.00 0.01 0.01 90 1007.2
20260507121424 82 66 1.0 4.0 0.00 0.01 0.01 90 1007.2
20260507120923 82 70 1.0 4.0 0.00 0.01 0.01 90 1007.2
20260507120422 82 52 0.0 3.0 0.00 0.01 0.01 90 1007.2
20260507115922 82 68 1.0 4.0 0.00 0.01 0.01 90 1007.2
20260507115423 82 56 2.0 5.0 0.00 0.01 0.01 90 1007.2
20260507114921 82 30 2.0 5.0 0.00 0.01 0.01 90 1007.1
20260507114423 82 19 2.0 5.0 0.00 0.01 0.01 90 1007.1
20260507113921 81 34 3.0 7.0 0.00 0.01 0.01 90 1007.0
20260507113421 82 27 3.0 7.0 0.00 0.01 0.01 90 1007.0
20260507112921 82 4 3.0 8.0 0.00 0.01 0.01 90 1007.0
20260507112421 82 36 3.0 8.0 0.00 0.01 0.01 90 1007.0
20260507111921 82 10 4.0 10.0 0.00 0.01 0.01 90 1006.9
20260507111641 82 18 4.0 10.0 0.00 0.01 0.01 90 1006.9
20260507110921 82 359 3.0 8.0 0.00 0.01 0.01 90 1006.9
20260507110417 82 16 3.0 8.0 0.00 0.01 0.01 90 1006.9
20260507105917 82 20 3.0 8.0 0.00 0.01 0.01 90 1006.8
20260507105416 82 35 3.0 10.0 0.00 0.01 0.01 89 1006.8
20260507105146 82 41 4.0 10.0 0.00 0.01 0.01 90 1006.8
20260507104417 82 50 4.0 9.0 0.00 0.01 0.01 90 1006.8
20260507103922 82 54 4.0 10.0 0.00 0.01 0.01 90 1006.8
20260507103422 82 64 4.0 10.0 0.00 0.01 0.01 90 1006.8
20260507102923 82 25 5.0 10.0 0.00 0.01 0.01 90 1006.8
20260507102423 82 51 5.0 10.0 0.00 0.01 0.01 90 1006.7
20260507101916 82 42 5.0 11.0 0.00 0.01 0.01 90 1006.7
20260507101900 82 74 5.0 11.0 0.00 0.01 0.01 90 1006.4
20260507100904 82 19 5.0 10.0 0.00 0.01 0.01 90 1006.4
20260507100618 82 340 4.0 10.0 0.00 0.01 0.01 90 1006.4
20260507095856 82 44 4.0 9.0 0.00 0.01 0.01 89 1006.4
20260507095346 82 8 5.0 10.0 0.00 0.01 0.01 89 1006.4
20260507095105 82 86 4.0 11.0 0.00 0.01 0.01 89 1006.3
20260507094334 83 27 4.0 11.0 0.00 0.01 0.01 89 1006.2
20260507093827 83 349 3.0 8.0 0.00 0.01 0.01 89 1006.2
20260507093547 83 43 4.0 9.0 0.00 0.01 0.01 88 1006.2
20260507092816 83 23 5.0 10.0 0.00 0.01 0.01 88 1006.0
20260507092309 83 17 5.0 10.0 0.00 0.01 0.01 87 1005.8
20260507091807 83 9 5.0 10.0 0.00 0.01 0.01 87 1005.8
20260507091257 83 38 6.0 11.0 0.00 0.01 0.01 87 1005.9
20260507091011 83 41 6.0 13.0 0.00 0.01 0.01 87 1005.8
20260507090245 83 37 6.0 13.0 0.00 0.01 0.01 87 1005.7
20260507085739 83 26 5.0 11.0 0.00 0.01 0.01 87 1005.7
20260507085234 84 14 5.0 13.0 0.00 0.01 0.01 86 1005.7
20260507084728 84 30 6.0 13.0 0.00 0.01 0.01 86 1005.5
20260507084221 84 23 7.0 14.0 0.00 0.01 0.01 86 1005.5
20260507083944 84 31 7.0 14.0 0.00 0.01 0.01 85 1005.4
20260507083209 84 359 6.0 12.0 0.00 0.01 0.01 86 1005.5
20260507082926 84 27 5.0 11.0 0.00 0.01 0.01 86 1005.4
20260507082157 85 54 4.0 11.0 0.00 0.01 0.01 86 1005.4
20260507081651 84 359 6.0 10.0 0.00 0.01 0.01 87 1005.4
20260507081145 84 340 6.0 14.0 0.00 0.01 0.01 87 1005.4
20260507080859 84 24 5.0 11.0 0.00 0.01 0.01 87 1005.4
20260507080133 84 43 7.0 14.0 0.00 0.01 0.01 87 1005.4
20260507075628 84 30 7.0 14.0 0.00 0.01 0.01 86 1005.4
20260507075127 84 12 7.0 14.0 0.00 0.01 0.01 87 1005.4
20260507074618 83 52 8.0 14.0 0.00 0.01 0.01 87 1005.5
20260507074110 84 59 8.0 14.0 0.00 0.01 0.01 86 1005.6
20260507073604 84 33 8.0 13.0 0.00 0.01 0.01 87 1005.6
20260507073058 84 341 9.0 14.0 0.00 0.01 0.01 86 1005.6
20260507072552 85 30 7.0 14.0 0.00 0.01 0.01 84 1005.5
20260507072047 85 31 6.0 13.0 0.00 0.01 0.01 84 1005.4
20260507071805 85 73 7.0 13.0 0.00 0.01 0.01 84 1005.5
20260507071034 85 345 7.0 12.0 0.00 0.01 0.01 84 1005.5
20260507070528 85 14 7.0 13.0 0.00 0.01 0.01 84 1005.6
20260507070023 85 29 6.0 14.0 0.00 0.01 0.01 83 1005.6
20260507065516 85 29 7.0 14.0 0.00 0.01 0.01 86 1005.5
20260507065010 85 79 5.0 14.0 0.00 0.01 0.01 85 1005.5
20260507064723 85 11 4.0 10.0 0.00 0.01 0.01 85 1005.5
20260507063957 85 4 6.0 12.0 0.00 0.01 0.01 85 1005.4
20260507063452 84 326 6.0 12.0 0.00 0.01 0.01 85 1005.4
20260507063209 85 35 6.0 14.0 0.00 0.01 0.01 85 1005.5
20260507062440 84 31 7.0 14.0 0.00 0.01 0.01 86 1005.5
20260507062203 84 359 6.0 12.0 0.00 0.01 0.01 86 1005.6
20260507061430 84 44 7.0 12.0 0.00 0.01 0.01 86 1005.7
20260507060922 84 333 8.0 13.0 0.00 0.01 0.01 86 1005.7
20260507060416 84 35 9.0 17.0 0.00 0.01 0.01 87 1005.8
20260507055910 84 348 9.0 17.0 0.00 0.01 0.01 86 1005.8
20260507055404 84 359 9.0 16.0 0.00 0.01 0.01 85 1005.8
20260507054857 84 359 10.0 16.0 0.00 0.01 0.01 86 1005.9
20260507054354 84 359 10.0 17.0 0.00 0.01 0.01 85 1006.0
20260507053845 85 29 9.0 17.0 0.00 0.01 0.01 84 1006.0
20260507053340 85 336 9.0 17.0 0.00 0.01 0.01 85 1006.3
20260507052839 85 12 8.0 17.0 0.00 0.01 0.01 85 1006.4
20260507052327 85 4 9.0 15.0 0.00 0.01 0.01 84 1006.5
20260507051821 85 56 8.0 14.0 0.00 0.01 0.01 84 1006.5
20260507051316 85 32 7.0 14.0 0.00 0.01 0.01 84 1006.5
20260507050810 85 345 8.0 15.0 0.00 0.01 0.01 85 1006.5
20260507050304 84 37 9.0 17.0 0.00 0.01 0.01 85 1006.7
20260507045758 84 349 8.0 17.0 0.00 0.01 0.01 86 1006.8
20260507045252 84 40 9.0 16.0 0.00 0.01 0.01 85 1007.0
20260507044750 85 337 8.0 15.0 0.00 0.01 0.01 85 1007.0
20260507044250 85 50 6.0 15.0 0.00 0.01 0.01 84 1007.2
20260507043751 85 331 7.0 13.0 0.00 0.01 0.01 85 1007.1
20260507043248 85 48 7.0 13.0 0.00 0.01 0.01 85 1007.1
20260507042748 85 50 7.0 13.0 0.00 0.01 0.01 85 1007.3
20260507042249 85 350 7.0 14.0 0.00 0.01 0.01 84 1007.3
20260507041746 85 359 5.0 14.0 0.00 0.01 0.01 83 1007.3
20260507041503 85 25 5.0 12.0 0.00 0.01 0.01 85 1007.5
20260507040746 85 39 6.0 12.0 0.00 0.01 0.01 82 1007.6
20260507040257 84 59 7.0 14.0 0.00 0.01 0.01 84 1007.7
20260507040246 85 339 6.0 12.0 0.00 0.01 0.01 84 1007.7
20260507035246 84 359 6.0 15.0 0.00 0.01 0.01 85 1007.7
20260507034746 84 14 7.0 15.0 0.00 0.01 0.01 85 1007.9
20260507034242 84 334 6.0 13.0 0.00 0.01 0.01 85 1008.0
20260507033742 84 359 7.0 13.0 0.00 0.01 0.01 86 1008.1
20260507033242 84 27 6.0 13.0 0.00 0.01 0.01 85 1007.9
20260507032742 84 27 5.0 13.0 0.00 0.01 0.01 86 1008.0
20260507032503 84 37 6.0 13.0 0.00 0.01 0.01 85 1008.0
20260507031742 85 350 7.0 14.0 0.00 0.01 0.01 85 1008.1
20260507031511 84 347 7.0 14.0 0.00 0.01 0.01 85 1008.2
20260507030744 84 339 7.0 14.0 0.00 0.01 0.01 86 1008.1
20260507030242 83 13 8.0 15.0 0.00 0.01 0.01 86 1008.1
20260507025742 83 11 8.0 15.0 0.00 0.01 0.01 87 1008.2
20260507025242 84 359 8.0 15.0 0.00 0.01 0.01 86 1008.3
20260507024742 84 8 7.0 15.0 0.00 0.01 0.01 85 1008.3
20260507024242 84 48 6.0 14.0 0.00 0.01 0.01 86 1008.2
20260507023742 84 71 7.0 14.0 0.00 0.01 0.01 85 1008.1
20260507023242 84 60 8.0 15.0 0.00 0.01 0.01 85 1008.1
20260507022748 83 32 9.0 16.0 0.00 0.01 0.01 86 1008.1
20260507022511 83 354 8.0 16.0 0.00 0.01 0.01 86 1008.1
20260507021746 83 14 8.0 14.0 0.00 0.01 0.01 86 1008.2
20260507021241 83 27 7.0 15.0 0.00 0.01 0.01 85 1008.3
20260507020734 84 27 6.0 15.0 0.00 0.01 0.01 86 1008.3
20260507020456 83 15 7.0 14.0 0.00 0.01 0.01 88 1008.3
20260507015722 83 359 8.0 14.0 0.00 0.01 0.01 87 1008.4
20260507015216 83 359 7.0 16.0 0.00 0.01 0.01 87 1008.5
20260507014710 83 354 7.0 16.0 0.00 0.01 0.01 87 1008.5
20260507014422 83 340 6.0 13.0 0.00 0.01 0.01 85 1008.6
20260507013659 84 359 6.0 13.0 0.00 0.01 0.01 87 1008.5
20260507013152 83 359 7.0 13.0 0.00 0.01 0.01 86 1008.5
20260507012649 83 39 7.0 14.0 0.00 0.01 0.01 86 1008.4
20260507012140 83 19 7.0 14.0 0.00 0.01 0.01 86 1008.5
20260507011635 83 49 7.0 14.0 0.00 0.01 0.01 87 1008.5
20260507011129 82 359 7.0 14.0 0.00 0.01 0.01 87 1008.6
20260507010622 82 85 4.0 12.0 0.00 0.01 0.01 88 1008.6
20260507010343 82 8 2.0 5.0 0.00 0.01 0.01 89 1008.7
20260507005611 82 112 2.0 4.0 0.00 0.01 0.01 90 1008.7
20260507005105 82 152 1.0 4.0 0.01 0.01 0.01 90 1008.7
20260507004559 82 225 1.0 4.0 0.01 0.01 0.01 90 1008.7
20260507004538 82 163 1.0 4.0 0.01 0.01 0.01 90 1008.8
20260507003546 82 166 1.0 3.0 0.01 0.01 0.01 90 1008.8
20260507003040 82 163 0.0 3.0 0.01 0.01 0.01 90 1008.8
20260507002534 82 164 0.0 3.0 0.01 0.01 0.01 90 1008.9
20260507002028 82 166 0.0 3.0 0.01 0.01 0.01 90 1008.8
20260507001522 81 164 0.0 3.0 0.01 0.01 0.01 91 1008.9
20260507001017 80 163 0.0 2.0 0.01 0.01 0.01 92 1008.8
20260507000511 80 164 0.0 2.0 0.01 0.01 0.01 92 1008.8
20260507000005 79 359 0.0 2.0 0.01 0.01 0.01 92 1008.8
20260506235718 79 164 1.0 3.0 0.01 0.01 0.01 92 1008.8
20260506234952 79 359 1.0 3.0 0.00 0.00 0.00 91 1008.9
20260506234447 79 359 1.0 4.0 0.00 0.00 0.00 91 1008.8
20260506233943 79 247 1.0 4.0 0.00 0.00 0.00 91 1008.6
20260506233435 78 222 2.0 4.0 0.00 0.00 0.00 91 1008.6
20260506232929 78 224 2.0 4.0 0.00 0.00 0.00 91 1008.4
20260506232913 78 225 2.0 4.0 0.00 0.00 0.00 91 1008.4
20260506231917 78 244 3.0 4.0 0.00 0.00 0.00 91 1008.4
20260506231411 78 216 3.0 4.0 0.00 0.00 0.00 90 1008.4
20260506230905 78 232 3.0 5.0 0.00 0.00 0.00 90 1008.3
20260506230359 78 228 2.0 5.0 0.00 0.00 0.00 90 1008.2
20260506225853 78 235 1.0 3.0 0.00 0.00 0.00 90 1008.1
20260506225839 78 227 1.0 3.0 0.00 0.00 0.00 90 1008.0
20260506225112 78 228 1.0 3.0 0.00 0.00 0.00 89 1008.1
20260506224335 79 252 0.0 2.0 0.00 0.00 0.00 90 1008.0
20260506223828 78 90 0.0 0.0 0.00 0.00 0.00 90 1008.1
20260506223323 78 91 0.0 0.0 0.00 0.00 0.00 89 1008.1
20260506223039 78 89 0.0 0.0 0.00 0.00 0.00 89 1008.0
20260506222311 78 94 0.0 1.0 0.00 0.00 0.00 89 1007.9
20260506221804 78 91 1.0 3.0 0.00 0.00 0.00 89 1007.9
20260506221521 78 93 2.0 3.0 0.00 0.00 0.00 89 1007.9
20260506220753 78 85 1.0 3.0 0.00 0.00 0.00 88 1007.8
20260506220248 78 103 0.0 0.0 0.00 0.00 0.00 88 1007.8
20260506220225 78 102 0.0 1.0 0.00 0.00 0.00 88 1007.7
20260506215234 78 104 0.0 2.0 0.00 0.00 0.00 89 1007.5
20260506214729 78 104 0.0 2.0 0.00 0.00 0.00 89 1007.5
20260506214223 78 181 0.0 3.0 0.00 0.00 0.00 89 1007.4
20260506213718 78 180 1.0 4.0 0.00 0.00 0.00 89 1007.5
20260506213211 78 164 1.0 4.0 0.00 0.00 0.00 88 1007.3
20260506212920 78 255 3.0 5.0 0.00 0.00 0.00 88 1007.4
20260506212415 78 251 3.0 5.0 0.00 0.00 0.00 88 1007.3
20260506211653 79 258 2.0 4.0 0.00 0.00 0.00 87 1007.1
20260506211148 79 241 2.0 3.0 0.00 0.00 0.00 87 1007.2
20260506210641 79 284 2.0 3.0 0.00 0.00 0.00 87 1007.2
20260506210356 79 316 2.0 3.0 0.00 0.00 0.00 87 1007.3
20260506205628 79 359 2.0 3.0 0.00 0.00 0.00 87 1007.1
20260506205123 79 317 2.0 3.0 0.00 0.00 0.00 88 1007.1
20260506204621 79 301 2.0 4.0 0.00 0.00 0.00 87 1007.0
20260506204122 79 359 2.0 4.0 0.00 0.00 0.00 87 1007.0
20260506203621 79 297 2.0 3.0 0.00 0.00 0.00 87 1007.1
20260506203119 80 291 1.0 3.0 0.00 0.00 0.00 86 1007.0
20260506202619 80 281 1.0 3.0 0.00 0.00 0.00 86 1007.1
20260506202120 79 297 1.0 2.0 0.00 0.00 0.00 86 1007.1
20260506201620 79 310 1.0 3.0 0.00 0.00 0.00 87 1007.1
20260506201122 79 309 2.0 3.0 0.00 0.00 0.00 86 1007.1
20260506200842 79 241 1.0 3.0 0.00 0.00 0.00 87 1007.0
20260506200116 79 359 2.0 4.0 0.00 0.00 0.00 87 1007.0
20260506195617 79 241 2.0 4.0 0.00 0.00 0.00 87 1006.8
20260506195117 79 183 1.0 4.0 0.00 0.00 0.00 87 1006.8
20260506194617 79 228 2.0 4.0 0.00 0.00 0.00 88 1006.8
20260506194117 79 222 1.0 3.0 0.00 0.00 0.00 88 1006.8
20260506193622 79 205 1.0 5.0 0.00 0.00 0.00 88 1006.9
20260506193118 79 223 2.0 5.0 0.00 0.00 0.00 88 1006.9
20260506192619 78 206 2.0 4.0 0.00 0.01 0.00 87 1006.9
20260506192119 79 210 2.0 4.0 0.00 0.01 0.00 88 1006.9
20260506191719 79 212 3.0 4.0 0.00 0.01 0.00 89 1006.9
20260506190614 78 215 1.0 4.0 0.00 0.01 0.00 88 1006.8
20260506190115 78 226 1.0 3.0 0.00 0.01 0.00 88 1006.8
20260506185834 78 197 2.0 4.0 0.00 0.01 0.00 88 1006.8
20260506185116 78 193 2.0 4.0 0.00 0.01 0.00 88 1006.7
20260506184613 78 152 1.0 4.0 0.00 0.01 0.00 88 1006.8
20260506184113 78 188 1.0 4.0 0.00 0.01 0.00 88 1006.9
20260506183614 78 225 1.0 3.0 0.00 0.01 0.00 88 1006.9
20260506183113 78 226 1.0 4.0 0.00 0.01 0.00 87 1006.8
20260506182613 78 199 2.0 5.0 0.00 0.01 0.00 88 1006.9
20260506182113 78 218 2.0 5.0 0.00 0.01 0.00 88 1006.9
20260506181614 78 222 2.0 5.0 0.00 0.01 0.00 88 1006.9
20260506181113 77 250 1.0 5.0 0.00 0.01 0.00 88 1006.9
20260506180612 77 213 2.0 7.0 0.00 0.01 0.00 88 1007.0
20260506180107 77 253 3.0 7.0 0.00 0.01 0.00 88 1007.0
20260506180053 76 220 3.0 7.0 0.00 0.01 0.00 88 1007.1
20260506175055 76 239 3.0 6.0 0.00 0.02 0.00 88 1007.2
20260506174548 76 234 4.0 6.0 0.00 0.02 0.00 88 1007.1
20260506174044 76 247 3.0 6.0 0.00 0.02 0.00 88 1007.1
20260506173536 77 237 3.0 6.0 0.00 0.04 0.00 87 1007.2
20260506173031 78 220 2.0 5.0 0.00 0.04 0.00 86 1007.3
20260506172524 77 239 2.0 6.0 0.00 0.04 0.00 86 1007.3
20260506172235 77 203 2.0 5.0 0.00 0.04 0.00 87 1007.4
20260506171512 76 193 2.0 5.0 0.00 0.04 0.00 88 1007.5
20260506171006 76 210 3.0 5.0 0.00 0.04 0.00 88 1007.5
20260506170500 76 229 4.0 6.0 0.00 0.04 0.00 88 1007.5
20260506165955 77 231 3.0 6.0 0.00 0.04 0.00 87 1007.5
20260506165451 77 235 2.0 5.0 0.00 0.04 0.00 87 1007.6
20260506164942 77 237 1.0 4.0 0.00 0.04 0.00 86 1007.6
20260506164437 77 223 2.0 6.0 0.00 0.04 0.00 86 1007.6
20260506164150 77 233 2.0 6.0 0.00 0.04 0.00 87 1007.7
20260506163424 77 214 2.0 6.0 0.00 0.04 0.00 87 1007.7
20260506162919 77 226 2.0 6.0 0.00 0.04 0.00 87 1007.9
20260506162412 77 242 2.0 7.0 0.00 0.04 0.00 87 1007.9
20260506161906 76 168 2.0 9.0 0.00 0.04 0.00 88 1007.9
20260506161841 76 181 2.0 9.0 0.00 0.04 0.00 89 1008.0
20260506160855 76 219 3.0 7.0 0.00 0.04 0.00 89 1007.9
20260506160607 76 200 3.0 5.0 0.00 0.04 0.00 89 1007.9
20260506155843 76 212 3.0 5.0 0.00 0.04 0.04 89 1008.0
20260506155337 77 228 3.0 7.0 0.00 0.04 0.04 89 1008.0
20260506154831 77 359 3.0 7.0 0.00 0.04 0.04 88 1008.2
20260506154325 77 221 3.0 6.0 0.00 0.04 0.04 88 1008.1
20260506154040 77 194 3.0 6.0 0.00 0.04 0.04 88 1008.1
20260506153313 77 220 3.0 6.0 0.00 0.04 0.04 88 1008.2
20260506152807 77 201 3.0 6.0 0.00 0.04 0.04 89 1008.2
20260506152305 77 191 3.0 7.0 0.00 0.04 0.04 89 1008.3
20260506151757 77 187 2.0 7.0 0.00 0.04 0.04 89 1008.3
20260506151249 78 195 3.0 7.0 0.00 0.04 0.04 88 1008.3
20260506150743 79 252 3.0 6.0 0.00 0.04 0.04 87 1008.3
20260506150237 79 232 3.0 6.0 0.00 0.04 0.04 86 1008.3
20260506145731 80 255 3.0 6.0 0.00 0.04 0.04 85 1008.5
20260506145225 80 244 2.0 4.0 0.00 0.04 0.04 84 1008.5
20260506144720 81 263 2.0 4.0 0.00 0.04 0.04 82 1008.5
20260506144214 81 318 2.0 4.0 0.00 0.04 0.04 82 1008.6
20260506143707 81 297 2.0 4.0 0.00 0.04 0.04 82 1008.6
20260506143201 81 289 3.0 4.0 0.00 0.04 0.04 82 1008.7
20260506142654 80 299 3.0 4.0 0.00 0.04 0.04 82 1008.6
20260506142149 80 295 3.0 5.0 0.00 0.04 0.04 83 1008.8
20260506141643 80 275 3.0 5.0 0.00 0.04 0.04 85 1008.6
20260506141137 80 277 2.0 4.0 0.00 0.04 0.04 86 1008.6
20260506140631 80 268 2.0 4.0 0.00 0.04 0.04 85 1008.6
20260506140125 79 274 3.0 4.0 0.00 0.04 0.04 86 1008.6
20260506135619 78 272 3.0 4.0 0.00 0.04 0.04 88 1008.6
20260506135114 78 251 3.0 4.0 0.00 0.04 0.04 89 1008.5
20260506134607 78 254 3.0 4.0 0.00 0.04 0.04 89 1008.5
20260506134104 79 247 3.0 4.0 0.00 0.04 0.04 89 1008.5
20260506133555 79 359 3.0 4.0 0.00 0.04 0.04 88 1008.5
20260506133048 79 249 3.0 4.0 0.00 0.04 0.04 88 1008.5
20260506132805 79 250 3.0 4.0 0.00 0.04 0.04 88 1008.4
20260506132037 79 252 3.0 4.0 0.00 0.04 0.04 88 1008.4
20260506131532 79 251 3.0 5.0 0.00 0.04 0.04 88 1008.4
20260506131025 79 245 2.0 5.0 0.00 0.04 0.04 88 1008.4
20260506130519 79 231 2.0 4.0 0.00 0.04 0.04 89 1008.4
20260506130014 79 228 1.0 3.0 0.00 0.04 0.04 89 1008.4